Regional Weather Roundup
Issued by NWS

Home | Current Version | Previous Version | Text Only | Print | Product List | Glossary On
Versions: 1 2 3 4 5 6 7 8 9 10 11 12 13 14 15 16 17 18 19 20 21 22 23 24 25 26 27 28 29 30 31 32 33 34 35 36 37 38 39 40 41 42 43 44 45 46 47 48 49 50
000
ASUS46 KPQR 022310
RWROR

OREGON REGIONAL WEATHER ROUNDUP
NATIONAL WEATHER SERVICE PORTLAND OR
300 PM PST MON MAR 02 2015

NOTE: "FAIR" INDICATES FEW OR NO CLOUDS BELOW 12,000 FEET WITH
NO SIGNIFICANT WEATHER AND/OR OBSTRUCTIONS TO VISIBILITY.

ORZ001>013-030000-
NORTHWEST OREGON


CITY           SKY/WX    TMP DP  RH WIND       PRES   REMARKS
ASTORIA        SUNNY     53  40  61 NW16      30.02R
NEWPORT        PTSUNNY   50  43  76 N13       30.02R
PORTLAND       MOSUNNY   55  38  52 W13       29.96F
VANCOUVER WA   CLOUDY    55  36  48 NW10      29.96S
SCAPPOOSE      SUNNY     56  36  47 NW12G17   29.97R
HILLSBORO      MOSUNNY   55  38  52 NW8       29.96S
AURORA         MOSUNNY   55  38  52 NW9       29.97R
MCMINNVILLE    MOSUNNY   54  38  54 N9        29.98S
SALEM          MOSUNNY   54  35  48 N12       29.95S
CORVALLIS      PTSUNNY   52  37  58 N6        29.98S
EUGENE         PTSUNNY   53  38  56 N9        29.97R
$$

ORZ021-028-030000-
SOUTHWEST OREGON


CITY           SKY/WX    TMP DP  RH WIND       PRES   REMARKS
NORTH BEND     PTSUNNY   52  43  71 N13       29.99R
BROOKINGS      SUNNY     56  44  64 NW12      29.88S
ROSEBURG       CLOUDY    51  38  60 N8        29.95R
SEXTON SUMMIT  CLOUDY    38  33  82 MISG      29.85R
MEDFORD        SUNNY     56  31  38 NW8       29.85S
$$

ORZ014>016-041-030000-
COLUMBIA GORGE


CITY           SKY/WX    TMP DP  RH WIND       PRES   REMARKS
TROUTDALE      CLOUDY    56  37  49 W6        29.95S
THE DALLES     CLOUDY    53  27  36 E8        29.95S
$$

ORZ029>031-041-044-049-050-061>064-502-503-505>511-030000-
EASTERN OREGON


CITY           SKY/WX    TMP DP  RH WIND       PRES   REMARKS
REDMOND        CLOUDY    45  24  43 N14G22    29.85S
BEND           MOSUNNY   41  23  48 N12G17    29.85S
PRINEVILLE     PTSUNNY   46  25  42 N16G23    29.85R
KLAMATH FALLS  SUNNY     47  18  31 VRB3      29.78R
LAKEVIEW       CLOUDY    43  27  52 N8        29.78S
HERMISTON      CLOUDY    49  27  42 N12       29.94S
PENDLETON      CLOUDY    45  22  40 N13       29.91S
JOHN DAY       CLOUDY    42  26  53 NW12      29.81R
MEACHAM        CLOUDY    34  22  61 VRB3      29.85S
LA GRANDE      CLOUDY    43  19  39 NW20      29.83R
BAKER CITY     CLOUDY    42  21  43 NW22      29.79S
BURNS          CLOUDY    44  22  41 NW16G22   29.76R
ROME             N/A     43  26  51 NW13G22   29.73R
ONTARIO        MOSUNNY   52  20  28 W5        29.77F
$$


USA.gov is the U.S. government's official web portal to all federal, state and local government web resources and services.